FW8022 Weather Reports


Display with metric or nautical units.
time (UTC)temp
F
wind
direction
speed
MPH
gust
MPH
rain 1hr
in
rain 24hr
in
rain mn
in
humidity
%
barometer
mb
20260903062537 60 223 1.0 3.0 0.00 0.00 0.00 92 1015.1
20260903062040 60 223 1.0 3.0 0.00 0.00 0.00 92 1015.2
20260903061556 60 223 0.0 2.0 0.00 0.00 0.00 92 1015.3
20260903061038 60 223 1.0 2.0 0.00 0.00 0.00 92 1015.4
20260903060537 60 223 1.0 3.0 0.00 0.00 0.00 92 1015.5
20260903060050 60 223 1.0 3.0 0.00 0.00 0.00 92 1015.5
20260903055539 60 223 1.0 3.0 0.00 0.00 0.00 92 1015.5
20260903055040 60 223 1.0 3.0 0.00 0.00 0.00 92 1015.5
20260903054551 60 223 1.0 3.0 0.00 0.00 0.00 92 1015.6
20260903054039 60 223 1.0 3.0 0.00 0.00 0.00 92 1015.6
20260903053542 60 223 1.0 3.0 0.00 0.00 0.00 92 1015.5
20260903053110 60 0 1.0 3.0 0.00 0.00 0.00 92 1015.6
20260903052538 60 0 1.0 3.0 0.00 0.00 0.00 92 1015.7
20260903052038 60 211 1.0 3.0 0.00 0.00 0.00 92 1015.6
20260903051547 61 211 1.0 3.0 0.00 0.00 0.00 92 1015.7
20260903051037 61 209 1.0 3.0 0.00 0.00 0.00 92 1015.7
20260903050537 61 215 1.0 3.0 0.00 0.00 0.00 91 1015.8
20260903045538 61 213 1.0 3.0 0.00 0.00 0.00 91 1015.9
20260903045037 61 215 1.0 3.0 0.00 0.00 0.00 91 1015.9
20260903044559 61 213 1.0 4.0 0.00 0.00 0.00 91 1015.8
20260903044037 61 213 2.0 4.0 0.00 0.00 0.00 91 1015.8
20260903043538 61 211 1.0 5.0 0.00 0.00 0.00 91 1015.7
20260903043107 61 221 1.0 5.0 0.00 0.00 0.00 91 1015.7
20260903042537 61 203 2.0 5.0 0.00 0.00 0.00 91 1015.7
20260903042039 61 214 1.0 5.0 0.00 0.00 0.00 91 1015.7
20260903041558 61 210 1.0 5.0 0.00 0.00 0.00 91 1015.7
20260903041037 61 215 2.0 5.0 0.00 0.00 0.00 91 1015.6
20260903040538 61 221 2.0 4.0 0.00 0.00 0.00 91 1015.6
20260903040056 61 213 2.0 6.0 0.00 0.00 0.00 91 1015.6
20260903035537 61 220 2.0 6.0 0.00 0.00 0.00 91 1015.5
20260903035039 61 198 2.0 4.0 0.00 0.00 0.00 91 1015.5
20260903034557 61 215 2.0 5.0 0.00 0.00 0.00 90 1015.5
20260903034036 61 213 2.0 5.0 0.00 0.00 0.00 90 1015.4
20260903033537 61 227 1.0 5.0 0.00 0.00 0.00 90 1015.3
20260903033101 61 219 2.0 5.0 0.00 0.00 0.00 90 1015.2
20260903032537 61 208 2.0 5.0 0.00 0.00 0.00 90 1015.2
20260903032038 61 221 2.0 5.0 0.00 0.00 0.00 90 1015.2
20260903031611 61 224 1.0 4.0 0.00 0.00 0.00 90 1015.2
20260903031039 61 209 1.0 4.0 0.00 0.00 0.00 90 1015.2
20260903030538 61 209 2.0 4.0 0.00 0.00 0.00 90 1015.1
20260903030054 61 215 1.0 4.0 0.00 0.00 0.00 90 1015.1
20260903025537 61 211 2.0 4.0 0.00 0.00 0.00 89 1015.1
20260903025040 61 198 1.0 4.0 0.00 0.00 0.00 89 1015.1
20260903024551 61 202 1.0 4.0 0.00 0.00 0.00 89 1015.1
20260903024037 61 213 2.0 5.0 0.00 0.00 0.00 89 1015.1
20260903023537 61 246 2.0 5.0 0.00 0.00 0.00 89 1015.1
20260903023102 61 209 2.0 4.0 0.00 0.00 0.00 89 1015.2
20260903022537 61 223 2.0 5.0 0.00 0.00 0.00 89 1015.2
20260903022037 61 225 2.0 5.0 0.00 0.00 0.00 88 1015.3
20260903021557 61 220 2.0 5.0 0.00 0.00 0.00 88 1015.3
20260903021038 61 236 2.0 5.0 0.00 0.00 0.00 88 1015.3
20260903020535 62 223 2.0 5.0 0.00 0.00 0.00 87 1015.4
20260903020052 62 244 2.0 5.0 0.00 0.00 0.00 87 1015.6
20260903015537 62 246 2.0 5.0 0.00 0.00 0.00 88 1015.6
20260903015037 62 213 3.0 6.0 0.00 0.00 0.00 87 1015.6
20260903014559 62 203 3.0 6.0 0.00 0.00 0.00 87 1015.7
20260903014039 62 192 3.0 6.0 0.00 0.00 0.00 86 1015.6
20260903013537 62 245 3.0 6.0 0.00 0.00 0.00 86 1015.7
20260903013100 62 188 2.0 6.0 0.00 0.00 0.00 86 1015.7
20260903012537 62 218 2.0 6.0 0.00 0.00 0.00 85 1015.8
20260903012037 63 219 2.0 6.0 0.00 0.00 0.00 85 1015.8
20260903011558 63 206 3.0 6.0 0.00 0.00 0.00 85 1015.8
20260903011038 63 216 3.0 6.0 0.00 0.00 0.00 86 1015.9
20260903010537 63 197 3.0 6.0 0.00 0.00 0.00 86 1015.8
20260903010051 63 235 3.0 6.0 0.00 0.00 0.00 85 1015.8
20260903005537 63 224 3.0 5.0 0.00 0.00 0.00 84 1015.8
20260903005037 63 219 2.0 5.0 0.00 0.00 0.00 85 1015.8
20260903004552 63 238 3.0 5.0 0.00 0.00 0.00 84 1015.8
20260903004037 64 234 2.0 5.0 0.00 0.00 0.00 84 1015.9
20260903003537 64 198 2.0 5.0 0.00 0.00 0.00 84 1015.8
20260903003056 64 210 2.0 5.0 0.00 0.00 0.00 84 1015.9
20260903002537 64 219 3.0 5.0 0.00 0.00 0.00 83 1016.0
20260903002037 65 256 2.0 5.0 0.00 0.00 0.00 83 1016.0
20260903001555 64 232 2.0 5.0 0.00 0.00 0.00 84 1016.0
20260903001050 64 226 2.0 5.0 0.00 0.00 0.00 84 1016.0
20260903000537 64 228 2.0 5.0 0.00 0.00 0.00 84 1016.1
20260903000053 64 223 3.0 6.0 0.00 0.00 0.00 83 1016.1
20260902235537 65 227 2.0 6.0 0.00 0.00 0.00 84 1016.1
20260902235036 64 219 3.0 7.0 0.00 0.00 0.00 83 1016.2
20260902234601 65 229 2.0 7.0 0.00 0.00 0.00 83 1016.2
20260902234040 65 239 3.0 7.0 0.00 0.00 0.00 84 1016.2
20260902233537 64 209 3.0 6.0 0.00 0.00 0.00 85 1016.2
20260902233053 64 230 3.0 6.0 0.00 0.00 0.00 84 1016.2
20260902232540 64 235 3.0 6.0 0.00 0.00 0.00 84 1016.2
20260902232037 64 200 4.0 6.0 0.00 0.00 0.00 83 1016.2
20260902231555 65 236 3.0 6.0 0.00 0.00 0.00 83 1016.3
20260902231039 65 223 3.0 6.0 0.00 0.00 0.00 82 1016.3
20260902230537 66 240 2.0 6.0 0.00 0.00 0.00 82 1016.4
20260902230054 66 247 2.0 6.0 0.00 0.00 0.00 82 1016.5
20260902225537 65 212 2.0 5.0 0.00 0.00 0.00 83 1016.5
20260902225036 65 234 2.0 6.0 0.00 0.00 0.00 82 1016.6
20260902224551 65 211 3.0 6.0 0.00 0.00 0.00 82 1016.6
20260902224038 65 224 3.0 7.0 0.00 0.00 0.00 81 1016.6
20260902223537 65 232 3.0 7.0 0.00 0.00 0.00 81 1016.5
20260902223047 66 237 3.0 7.0 0.00 0.00 0.00 82 1016.5
20260902222537 66 217 3.0 7.0 0.00 0.00 0.00 80 1016.5
20260902222036 65 247 3.0 6.0 0.00 0.00 0.00 82 1016.5
20260902221556 65 235 3.0 7.0 0.00 0.00 0.00 81 1016.5
20260902221036 65 238 4.0 7.0 0.00 0.00 0.00 82 1016.5
20260902220537 65 242 4.0 7.0 0.00 0.00 0.00 82 1016.6
20260902220054 65 224 4.0 7.0 0.00 0.00 0.00 82 1016.6
20260902215537 65 215 3.0 7.0 0.00 0.00 0.00 82 1016.6
20260902215037 65 199 3.0 6.0 0.00 0.00 0.00 82 1016.7
20260902214553 65 173 4.0 7.0 0.00 0.00 0.00 82 1016.8
20260902214038 65 198 3.0 7.0 0.00 0.00 0.00 82 1016.8
20260902213542 65 215 4.0 7.0 0.00 0.00 0.00 82 1016.8
20260902213058 66 261 3.0 6.0 0.00 0.00 0.00 81 1016.9
20260902212537 66 223 3.0 6.0 0.00 0.00 0.00 82 1016.9
20260902212037 66 192 3.0 6.0 0.00 0.00 0.00 82 1017.0
20260902211610 65 217 3.0 6.0 0.00 0.00 0.00 81 1016.9
20260902211037 66 223 3.0 6.0 0.00 0.00 0.00 81 1016.8
20260902210536 66 214 3.0 6.0 0.00 0.00 0.00 82 1016.8
20260902210119 65 203 3.0 6.0 0.00 0.00 0.00 82 1016.8
20260902205538 65 225 3.0 6.0 0.00 0.00 0.00 83 1016.7
20260902205042 65 217 3.0 6.0 0.00 0.00 0.00 84 1016.7
20260902204551 64 219 3.0 7.0 0.00 0.00 0.00 84 1016.7
20260902204040 64 223 4.0 7.0 0.00 0.00 0.00 84 1016.7
20260902203536 64 223 3.0 7.0 0.00 0.00 0.00 84 1016.8
20260902203046 65 204 3.0 8.0 0.00 0.00 0.00 83 1016.7
20260902202537 64 238 4.0 8.0 0.00 0.00 0.00 84 1016.8
20260902202036 65 213 4.0 8.0 0.00 0.00 0.00 83 1016.7
20260902201608 65 249 4.0 8.0 0.00 0.00 0.00 84 1016.8
20260902201037 65 221 3.0 7.0 0.00 0.00 0.00 83 1016.8
20260902200536 65 221 3.0 7.0 0.00 0.00 0.00 82 1017.0
20260902200050 66 204 3.0 6.0 0.00 0.00 0.00 83 1017.0
20260902195538 66 200 2.0 8.0 0.00 0.00 0.00 83 1016.9
20260902195036 66 186 2.0 8.0 0.00 0.00 0.00 84 1016.8
20260902194551 65 190 4.0 8.0 0.00 0.00 0.00 85 1016.9
20260902194040 64 223 3.0 8.0 0.00 0.00 0.00 88 1016.9
20260902193537 63 194 3.0 6.0 0.00 0.00 0.00 88 1017.0
20260902193058 63 222 3.0 6.0 0.00 0.00 0.00 88 1017.1
20260902192537 63 227 3.0 6.0 0.00 0.00 0.00 89 1017.1
20260902192036 62 220 3.0 6.0 0.00 0.00 0.00 89 1017.1
20260902191601 62 223 3.0 7.0 0.00 0.00 0.00 89 1017.2
20260902191037 62 205 3.0 8.0 0.00 0.00 0.00 89 1017.1
20260902190537 62 236 4.0 8.0 0.00 0.00 0.00 89 1017.1
20260902190054 62 213 4.0 7.0 0.00 0.00 0.00 90 1017.1
20260902185538 62 231 3.0 7.0 0.00 0.00 0.00 90 1017.0
20260902185037 62 252 3.0 7.0 0.00 0.00 0.00 90 1017.0
20260902184549 62 234 3.0 7.0 0.00 0.00 0.00 91 1016.9
20260902184041 62 215 3.0 7.0 0.00 0.00 0.00 90 1016.9
20260902183539 62 236 3.0 7.0 0.00 0.00 0.00 89 1016.8
20260902183058 63 234 4.0 8.0 0.00 0.00 0.00 89 1016.9
20260902182537 63 203 4.0 9.0 0.00 0.00 0.00 88 1016.8
20260902182045 64 196 5.0 9.0 0.00 0.00 0.00 86 1016.7
20260902181605 64 223 3.0 7.0 0.00 0.00 0.00 85 1016.7
20260902181038 65 216 3.0 7.0 0.00 0.00 0.00 84 1016.7
20260902180536 65 192 2.0 7.0 0.00 0.00 0.00 84 1016.7
20260902180114 64 221 2.0 7.0 0.00 0.00 0.00 84 1016.7
20260902175537 65 160 2.0 6.0 0.00 0.00 0.00 84 1016.6
20260902175035 65 218 2.0 10.0 0.00 0.00 0.00 84 1016.5
20260902174555 64 207 4.0 10.0 0.00 0.00 0.00 85 1016.5
20260902174036 64 205 4.0 11.0 0.00 0.00 0.00 85 1016.4
20260902173537 64 200 5.0 12.0 0.00 0.00 0.00 84 1016.2
20260902173050 65 200 6.0 13.0 0.00 0.00 0.00 84 1016.1
20260902172537 65 225 3.0 13.0 0.00 0.00 0.00 84 1016.1
20260902172037 65 193 7.0 12.0 0.00 0.00 0.00 82 1016.0
20260902171558 65 202 6.0 13.0 0.00 0.00 0.00 82 1016.0
20260902171038 65 190 7.0 13.0 0.00 0.00 0.00 83 1016.0
20260902170536 65 194 4.0 10.0 0.00 0.00 0.00 82 1016.0
20260902170055 65 212 5.0 11.0 0.00 0.00 0.00 83 1015.9
20260902165536 64 183 6.0 11.0 0.00 0.00 0.00 83 1016.0
20260902165035 64 184 6.0 15.0 0.00 0.00 0.00 84 1015.9
20260902164553 64 213 5.0 15.0 0.00 0.00 0.00 84 1015.8
20260902164037 64 188 6.0 14.0 0.00 0.00 0.00 84 1015.8
20260902163537 64 190 5.0 13.0 0.00 0.00 0.00 85 1015.8
20260902163046 64 207 7.0 14.0 0.00 0.00 0.00 85 1015.7
20260902162536 64 201 5.0 14.0 0.00 0.00 0.00 84 1015.8
20260902162038 64 201 5.0 13.0 0.00 0.00 0.00 85 1015.8
20260902161556 64 181 6.0 13.0 0.00 0.00 0.00 84 1015.8
20260902161038 64 212 6.0 10.0 0.00 0.00 0.00 84 1015.8
20260902160537 64 170 4.0 8.0 0.00 0.00 0.00 84 1015.8
20260902160054 64 215 3.0 9.0 0.00 0.00 0.00 84 1015.7
20260902155536 63 161 3.0 12.0 0.00 0.00 0.00 84 1015.7
20260902155036 63 194 5.0 12.0 0.00 0.00 0.00 84 1015.7
20260902154550 64 231 7.0 10.0 0.00 0.00 0.00 83 1015.7
20260902154037 64 202 3.0 8.0 0.00 0.00 0.00 83 1015.8
20260902153536 64 213 1.0 8.0 0.00 0.00 0.00 83 1015.9
20260902153055 63 196 4.0 8.0 0.00 0.00 0.00 83 1015.8
20260902152536 63 148 3.0 6.0 0.00 0.00 0.00 83 1015.8
20260902152036 63 189 1.0 7.0 0.00 0.00 0.00 82 1015.8
20260902151559 62 207 2.0 7.0 0.00 0.00 0.00 82 1015.8
20260902151035 62 192 3.0 6.0 0.00 0.00 0.00 82 1015.7
20260902150541 62 188 1.0 7.0 0.00 0.00 0.00 82 1015.6
20260902150051 62 160 1.0 7.0 0.00 0.00 0.00 82 1015.5
20260902145539 62 227 3.0 7.0 0.00 0.00 0.00 82 1015.4
20260902145038 62 198 3.0 7.0 0.00 0.00 0.00 83 1015.4
20260902144610 62 186 3.0 9.0 0.00 0.00 0.00 83 1015.2
20260902144041 62 152 4.0 9.0 0.00 0.00 0.00 84 1015.1
20260902143538 62 219 3.0 9.0 0.00 0.00 0.00 84 1015.0
20260902143056 61 172 3.0 7.0 0.00 0.00 0.00 85 1015.0
20260902142539 61 161 2.0 5.0 0.00 0.00 0.00 85 1015.0
20260902142042 61 0 1.0 5.0 0.00 0.00 0.00 85 1015.0
20260902141550 62 128 2.0 5.0 0.00 0.00 0.00 84 1015.1
20260902141038 62 0 1.0 4.0 0.00 0.00 0.00 84 1015.1
20260902140538 62 0 1.0 5.0 0.00 0.00 0.00 84 1015.1
20260902140055 62 186 2.0 5.0 0.00 0.00 0.00 84 1015.1
20260902135540 61 154 2.0 5.0 0.00 0.00 0.00 84 1015.1
20260902135039 61 184 2.0 5.0 0.00 0.00 0.00 84 1015.0
20260902134559 61 190 2.0 7.0 0.00 0.00 0.00 84 1015.0
20260902134038 62 192 3.0 8.0 0.00 0.00 0.00 83 1015.0
20260902133539 62 200 3.0 8.0 0.00 0.00 0.00 83 1015.0
20260902133054 62 226 3.0 8.0 0.00 0.00 0.00 83 1015.0
20260902132538 62 165 3.0 7.0 0.00 0.00 0.00 84 1014.9
20260902132038 62 151 2.0 7.0 0.00 0.00 0.00 84 1014.9
20260902131555 62 145 2.0 7.0 0.00 0.00 0.00 84 1014.9
20260902131038 62 211 1.0 4.0 0.00 0.00 0.00 84 1014.9
20260902130539 61 190 1.0 4.0 0.00 0.00 0.00 84 1014.9
20260902130057 61 150 1.0 2.0 0.00 0.00 0.00 85 1014.8
20260902125539 61 0 0.0 2.0 0.00 0.00 0.00 85 1014.9
20260902125038 61 150 0.0 2.0 0.00 0.00 0.00 85 1014.9
20260902124558 61 150 0.0 2.0 0.00 0.00 0.00 85 1014.8
20260902124038 61 0 0.0 3.0 0.00 0.00 0.00 85 1014.8
20260902123537 61 150 0.0 3.0 0.00 0.00 0.00 85 1014.8
20260902123054 61 0 0.0 2.0 0.00 0.00 0.00 85 1014.7
20260902122539 61 150 0.0 2.0 0.00 0.00 0.00 85 1014.7
20260902122040 61 0 0.0 2.0 0.00 0.00 0.00 85 1014.6
20260902121601 61 0 0.0 2.0 0.00 0.00 0.00 85 1014.7
20260902121038 61 0 0.0 2.0 0.00 0.00 0.00 85 1014.7
20260902120538 61 148 0.0 3.0 0.00 0.00 0.00 85 1014.8
20260902120133 61 0 1.0 7.0 0.00 0.00 0.00 85 1014.9
20260902115533 61 173 1.0 7.0 0.00 0.00 0.00 84 1014.8
20260902115036 61 173 1.0 7.0 0.00 0.00 0.00 84 1014.7
20260902114549 61 157 0.0 4.0 0.00 0.00 0.00 84 1014.6
20260902114036 61 90 0.0 4.0 0.00 0.00 0.00 84 1014.6
20260902113536 60 161 0.0 4.0 0.00 0.00 0.00 84 1014.6
20260902113056 60 184 0.0 5.0 0.00 0.00 0.00 84 1014.7
20260902112534 61 184 1.0 5.0 0.00 0.00 0.00 83 1014.7
20260902112033 61 150 0.0 2.0 0.00 0.00 0.00 83 1014.9
20260902111551 61 150 0.0 2.0 0.00 0.00 0.00 83 1014.8
20260902111033 61 168 0.0 2.0 0.00 0.00 0.00 83 1014.8
20260902110534 61 0 0.0 2.0 0.00 0.00 0.00 83 1014.9
20260902110054 61 168 1.0 2.0 0.00 0.00 0.00 83 1014.9
20260902105534 61 142 0.0 2.0 0.00 0.00 0.00 84 1014.9
20260902105034 61 142 1.0 5.0 0.00 0.00 0.00 84 1014.9
20260902104557 61 142 1.0 5.0 0.00 0.00 0.00 84 1014.9
20260902104035 61 142 1.0 5.0 0.00 0.00 0.00 84 1014.9
20260902103536 61 134 1.0 3.0 0.00 0.00 0.00 84 1014.9
20260902103054 61 155 0.0 5.0 0.00 0.00 0.00 84 1014.9
20260902102536 61 0 2.0 5.0 0.00 0.00 0.00 84 1014.8
20260902102037 61 166 1.0 5.0 0.00 0.00 0.00 84 1014.7
20260902101550 60 157 1.0 5.0 0.00 0.00 0.00 85 1014.8
20260902101036 60 148 1.0 5.0 0.00 0.00 0.00 85 1014.7
20260902100536 60 0 1.0 5.0 0.00 0.00 0.00 84 1014.7
20260902100054 60 147 2.0 5.0 0.00 0.00 0.00 85 1014.8
20260902095536 60 163 1.0 7.0 0.00 0.00 0.00 85 1014.9
20260902095036 60 163 2.0 7.0 0.00 0.00 0.00 85 1014.8
20260902094546 60 198 1.0 9.0 0.00 0.00 0.00 85 1014.9
20260902094036 60 180 2.0 9.0 0.00 0.00 0.00 85 1014.9
20260902093539 60 183 3.0 6.0 0.00 0.00 0.00 85 1014.9
20260902093053 60 156 2.0 7.0 0.00 0.00 0.00 85 1014.9
20260902092536 60 153 2.0 7.0 0.00 0.00 0.00 85 1015.0
20260902092037 60 175 3.0 7.0 0.00 0.00 0.00 85 1015.0
20260902091557 60 176 2.0 7.0 0.00 0.00 0.00 85 1015.0
20260902091036 60 182 2.0 5.0 0.00 0.00 0.00 85 1015.0
20260902090536 60 178 1.0 5.0 0.00 0.00 0.00 85 1015.0
20260902090055 60 180 2.0 5.0 0.00 0.00 0.00 85 1015.1
20260902085537 60 157 2.0 5.0 0.00 0.00 0.00 85 1015.0
20260902085036 60 179 1.0 5.0 0.00 0.00 0.00 85 1015.1
20260902084552 60 184 1.0 4.0 0.00 0.00 0.00 86 1015.1
20260902084039 60 190 1.0 4.0 0.00 0.00 0.00 86 1015.1
20260902083538 60 150 1.0 4.0 0.00 0.00 0.00 86 1015.2
20260902083054 60 0 0.0 4.0 0.00 0.00 0.00 85 1015.2
20260902082538 60 158 1.0 4.0 0.00 0.00 0.00 86 1015.3
20260902082039 60 0 0.0 4.0 0.00 0.00 0.00 85 1015.3
20260902081558 60 0 1.0 6.0 0.00 0.00 0.00 86 1015.3
20260902081036 60 198 1.0 6.0 0.00 0.00 0.00 86 1015.2
20260902080538 60 161 3.0 6.0 0.00 0.00 0.00 86 1015.3
20260902080111 60 193 2.0 5.0 0.00 0.00 0.00 87 1015.3
20260902075542 60 214 0.0 4.0 0.00 0.00 0.00 86 1015.2
20260902075037 60 0 0.0 5.0 0.00 0.00 0.00 86 1015.2
20260902074552 60 195 2.0 5.0 0.00 0.00 0.00 86 1015.2
20260902074037 60 188 1.0 4.0 0.00 0.00 0.00 86 1015.1
20260902073538 60 180 1.0 3.0 0.00 0.00 0.00 86 1015.1
20260902073051 60 0 1.0 3.0 0.00 0.00 0.00 86 1015.1
20260902072538 60 189 0.0 3.0 0.00 0.00 0.00 87 1015.2
20260902072042 60 0 1.0 5.0 0.00 0.00 0.00 87 1015.2
20260902071553 60 0 1.0 5.0 0.00 0.00 0.00 87 1015.2
20260902071041 60 196 1.0 4.0 0.00 0.00 0.00 87 1015.3
20260902070537 60 154 0.0 3.0 0.00 0.00 0.00 87 1015.3
20260902070057 60 154 0.0 3.0 0.00 0.00 0.00 87 1015.2
20260902065538 60 198 1.0 5.0 0.00 0.00 0.00 87 1015.3
20260902065037 60 182 2.0 7.0 0.00 0.00 0.00 87 1015.2
20260902064605 60 180 3.0 7.0 0.00 0.00 0.00 87 1015.2
20260902064038 60 189 1.0 4.0 0.00 0.00 0.00 87 1015.3
20260902063538 60 187 1.0 4.0 0.00 0.00 0.00 87 1015.3
20260902063048 60 180 0.0 3.0 0.00 0.00 0.00 87 1015.2